Weather History for KCFV - October, 2013

Change the Weather History Date:

Thursday, October 3, 2013

  Actual Average Record
Temperature  
Mean Temperature 77 °F -  
Max Temperature 84 °F 73 °F 97 °F (2006)
Min Temperature 70 °F 49 °F 37 °F (2004)
Cooling Degree Days 12    
Growing Degree Days 27 (Base 50)    
Moisture  
Dew Point 69 °F    
Average Humidity 78    
Maximum Humidity 90    
Minimum Humidity 63    
Precipitation  
Precipitation 0.00 in - - ()
Sea Level Pressure  
Sea Level Pressure 29.82 in    
Wind  
Wind Speed 12 mph (SSE)    
Max Wind Speed 21 mph    
Max Gust Speed 28 mph    
Visibility 10 miles    
Events      
Averages and records for this station are not official NWS values.
T = Trace of Precipitation, MM = Missing Value Source: NWS Daily Summary

Daily Weather History Graph

Daily Weather History Graph

Search for Another Location

Airport or City:

Trip Planner

Search our weather history database for the weather conditions in past years. The results will help you decide how hot, cold, wet, or windy it might be!

Date:

Astronomy

Oct. 03, 2013 Rise Set
Actual Time 7:19 AM CDT 7:02 PM CDT
Civil Twilight 6:53 AM CDT 7:28 PM CDT
Nautical Twilight 6:23 AM CDT 7:58 PM CDT
Astronomical Twilight 5:53 AM CDT 8:28 PM CDT
Moon 5:55 AM CDT (10/3) 6:10 PM CDT (10/3)
Length of Visible Light 12h 34m
Length of Day
11h 42m
Waning Crescent, 2% of the Moon is Illuminated
Oct 3
Waning Crescent
Oct 4
New
Oct 11
First Quarter
Oct 18
Full
Oct 26
Last Quarter

Hourly Weather History & Observations

Time (CDT) Temp. Heat Index Dew Point Humidity Pressure Visibility Wind Dir Wind Speed Gust Speed Precip Events Conditions
12:52 AM 72.0 °F - 66.9 °F 84% 29.87 in 10.0 mi South 8.1 mph - N/A   Clear
1:52 AM 71.1 °F - 66.9 °F 87% 29.86 in 10.0 mi SSE 8.1 mph - N/A   Clear
2:52 AM 71.1 °F - 66.9 °F 87% 29.86 in 10.0 mi SSE 9.2 mph - N/A   Clear
3:52 AM 71.1 °F - 66.9 °F 87% 29.85 in 10.0 mi SSE 8.1 mph - N/A   Clear
4:52 AM 71.1 °F - 66.9 °F 87% 29.86 in 10.0 mi SSE 8.1 mph - N/A   Clear
5:52 AM 70.0 °F - 66.9 °F 90% 29.85 in 10.0 mi SSE 6.9 mph - N/A   Clear
6:52 AM 70.0 °F - 66.9 °F 90% 29.85 in 10.0 mi SSE 10.4 mph - N/A   Clear
7:52 AM 71.1 °F - 68.0 °F 90% 29.85 in 10.0 mi SSE 10.4 mph - N/A   Clear
8:44 AM 73.4 °F - 69.8 °F 88% 29.88 in 10.0 mi SSE 12.7 mph - N/A   Mostly Cloudy
8:52 AM 73.9 °F - 69.1 °F 85% 29.86 in 10.0 mi SSE 12.7 mph - N/A   Mostly Cloudy
9:52 AM 77.0 °F - 69.1 °F 76% 29.85 in 10.0 mi South 19.6 mph 26.5 mph N/A   Mostly Cloudy
10:03 AM 78.8 °F - 69.8 °F 74% 29.87 in 10.0 mi South 17.3 mph 27.6 mph N/A   Scattered Clouds
10:34 AM 78.8 °F - 69.8 °F 74% 29.88 in 10.0 mi South 20.7 mph 27.6 mph N/A   Mostly Cloudy
10:52 AM 78.1 °F - 69.1 °F 74% 29.86 in 10.0 mi South 18.4 mph 26.5 mph N/A   Overcast
11:52 AM 79.0 °F - 70.0 °F 74% 29.85 in 10.0 mi South 15.0 mph 25.3 mph N/A   Overcast
12:52 PM 82.0 °F 86.3 °F 71.1 °F 69% 29.83 in 10.0 mi South 19.6 mph 25.3 mph N/A   Scattered Clouds
1:52 PM 82.9 °F 87.5 °F 71.1 °F 67% 29.80 in 10.0 mi South 19.6 mph 26.5 mph N/A   Partly Cloudy
2:52 PM 84.9 °F 90.1 °F 71.1 °F 63% 29.78 in 10.0 mi South 17.3 mph 25.3 mph N/A   Scattered Clouds
3:52 PM 84.0 °F 88.4 °F 70.0 °F 63% 29.77 in 10.0 mi South 16.1 mph 24.2 mph N/A   Mostly Cloudy
4:52 PM 82.9 °F 87.0 °F 70.0 °F 65% 29.75 in 10.0 mi South 20.7 mph 27.6 mph N/A   Clear
5:52 PM 84.0 °F 88.4 °F 70.0 °F 63% 29.74 in 10.0 mi South 13.8 mph 27.6 mph N/A   Partly Cloudy
6:52 PM 80.1 °F 82.9 °F 69.1 °F 69% 29.75 in 10.0 mi SSE 13.8 mph 25.3 mph N/A   Clear
7:52 PM 77.0 °F - 69.1 °F 76% 29.76 in 10.0 mi SSE 10.4 mph - N/A   Clear
8:52 PM 75.9 °F - 68.0 °F 76% 29.77 in 10.0 mi SSE 12.7 mph - N/A   Clear
9:52 PM 73.9 °F - 68.0 °F 82% 29.79 in 10.0 mi SSE 9.2 mph - N/A   Clear
11:52 PM 73.0 °F - 68.0 °F 84% 29.80 in 10.0 mi SSE 10.4 mph - N/A   Clear